Weather History for Broomfield, CO

Change the Weather History Date:

Tuesday, June 25, 2013

  Actual Average Record
Temperature  
Mean Temperature 76 °F -  
Max Temperature 91 °F 82 °F 104 °F (2012)
Min Temperature 60 °F 57 °F 44 °F (1993)
Cooling Degree Days 10    
Growing Degree Days 26 (Base 50)    
Moisture  
Dew Point 22 °F    
Average Humidity 15    
Maximum Humidity 27    
Minimum Humidity 8    
Precipitation  
Precipitation 0.00 in - - ()
Sea Level Pressure  
Sea Level Pressure 29.96 in    
Wind  
Wind Speed 13 mph (West)    
Max Wind Speed 25 mph    
Max Gust Speed 38 mph    
Visibility 10 miles    
Events      
Averages and records for this station are not official NWS values.
T = Trace of Precipitation, MM = Missing Value Source: NWS Daily Summary

Daily Weather History Graph

Daily Weather History Graph

Search for Another Location

Airport:

Trip Planner

Search our weather history database for the weather conditions in past years. The results will help you decide how hot, cold, wet, or windy it might be!

Date:

Astronomy

Jun. 25, 2013 Rise Set
Actual Time 5:33 AM MDT 8:32 PM MDT
Civil Twilight 5:00 AM MDT 9:05 PM MDT
Nautical Twilight 4:18 AM MDT 9:47 PM MDT
Astronomical Twilight 3:30 AM MDT 10:35 PM MDT
Moon 10:20 PM MDT (6/25) 8:16 AM MDT (6/25)
Length of Visible Light 16h 05m
Length of Day
14h 59m
Waning Gibbous, 92% of the Moon is Illuminated
Jun 25
Waning Gibbous
Jun 29
Last Quarter
Jul 8
New
Jul 15
First Quarter
Jul 22
Full

Hourly Weather History & Observations

Time (MDT) Temp. Dew Point Humidity Pressure Visibility Wind Dir Wind Speed Gust Speed Precip Events Conditions
12:16 AM 77.0 °F 15.8 °F 10% 29.88 in 10.0 mi West 20.7 mph 27.6 mph N/A   Clear
12:36 AM 73.4 °F 17.6 °F 12% 29.89 in 10.0 mi WNW 12.7 mph - N/A   Clear
12:56 AM 71.6 °F 17.6 °F 13% 29.88 in 10.0 mi West 3.5 mph - N/A   Clear
1:16 AM 75.2 °F 15.8 °F 11% 29.89 in 10.0 mi WSW 18.4 mph - N/A   Clear
1:36 AM 75.2 °F 19.4 °F 12% 29.90 in 10.0 mi West 9.2 mph - N/A   Clear
1:56 AM 71.6 °F 19.4 °F 14% 29.91 in 10.0 mi West 8.1 mph - N/A   Clear
2:16 AM 71.6 °F 17.6 °F 13% 29.91 in 10.0 mi West 10.4 mph - N/A   Clear
2:36 AM 73.4 °F 17.6 °F 12% 29.91 in 10.0 mi WNW 13.8 mph - N/A   Clear
2:56 AM 71.6 °F 17.6 °F 13% 29.91 in 10.0 mi WNW 12.7 mph - N/A   Clear
3:15 AM 71.6 °F 17.6 °F 13% 29.91 in 10.0 mi WNW 13.8 mph - N/A   Clear
3:36 AM 69.8 °F 17.6 °F 14% 29.91 in 10.0 mi WNW 13.8 mph - N/A   Clear
3:56 AM 68.0 °F 21.2 °F 17% 29.91 in 10.0 mi WNW 10.4 mph - N/A   Clear
4:15 AM 66.2 °F 23.0 °F 19% 29.91 in 10.0 mi WNW 10.4 mph - N/A   Clear
4:36 AM 66.2 °F 23.0 °F 19% 29.91 in 10.0 mi WNW 10.4 mph - N/A   Clear
4:56 AM 68.0 °F 19.4 °F 16% 29.92 in 10.0 mi WNW 13.8 mph - N/A   Clear
5:16 AM 64.4 °F 21.2 °F 19% 29.92 in 10.0 mi West 9.2 mph - N/A   Clear
5:36 AM 60.8 °F 24.8 °F 25% 29.92 in 10.0 mi WSW 9.2 mph - N/A   Clear
5:47 AM 60.8 °F 24.8 °F 25% 29.93 in 30.0 mi SW 5.8 mph - N/A   Scattered Clouds
5:56 AM 60.8 °F 26.6 °F 27% 29.93 in 10.0 mi SW 4.6 mph - N/A   Clear
6:47 AM 66.2 °F 26.6 °F 23% 29.94 in 30.0 mi WSW 4.6 mph - N/A   Scattered Clouds
7:47 AM 75.2 °F 19.4 °F 12% 29.97 in 50.0 mi West 23.0 mph 31.1 mph N/A   Mostly Cloudy
8:47 AM 73.4 °F 21.2 °F 14% 29.99 in 50.0 mi West 24.2 mph 32.2 mph N/A   Mostly Cloudy
9:55 AM 80.6 °F 21.2 °F 11% 30.00 in 50.0 mi WNW 20.7 mph 28.8 mph N/A   Mostly Cloudy
10:47 AM 82.4 °F 21.2 °F 10% 29.99 in 50.0 mi WNW 23.0 mph 35.7 mph N/A   Mostly Cloudy
11:53 AM 84.2 °F 21.2 °F 10% 29.99 in 50.0 mi West 25.3 mph 38.0 mph N/A   Mostly Cloudy
12:47 PM 86.0 °F 21.2 °F 9% 29.98 in 50.0 mi WNW 13.8 mph 27.6 mph N/A   Mostly Cloudy
1:24 PM 86.0 °F 21.2 °F 9% 29.98 in 50.0 mi South 20.7 mph 31.1 mph N/A   Mostly Cloudy
1:50 PM 86.0 °F 21.2 °F 9% 29.99 in 50.0 mi ESE 6.9 mph - N/A   Mostly Cloudy
2:25 PM 86.0 °F 23.0 °F 10% 29.99 in 50.0 mi NW 6.9 mph - N/A   Mostly Cloudy
2:51 PM 91.4 °F 23.0 °F 8% 29.98 in 50.0 mi NW 12.7 mph 17.3 mph N/A   Mostly Cloudy
3:53 PM 89.6 °F 21.2 °F 8% 29.96 in 50.0 mi North 5.8 mph 17.3 mph N/A   Mostly Cloudy
4:48 PM 91.4 °F 21.2 °F 8% 29.97 in 40.0 mi SSW 12.7 mph 18.4 mph N/A   Mostly Cloudy
5:46 PM 86.0 °F 23.0 °F 10% 29.98 in 40.0 mi North 6.9 mph 17.3 mph N/A   Mostly Cloudy
6:53 PM 84.2 °F 26.6 °F 12% 30.00 in 35.0 mi NE 8.1 mph - N/A   Scattered Clouds
7:50 PM 82.4 °F 28.4 °F 14% 30.01 in 50.0 mi NNE 5.8 mph - N/A   Scattered Clouds
8:47 PM 78.8 °F 32.0 °F 18% 30.03 in 35.0 mi East 6.9 mph - N/A   Scattered Clouds
9:46 PM 75.2 °F 32.0 °F 21% 30.07 in 20.0 mi WSW 3.5 mph - N/A   Scattered Clouds
11:16 PM 68.0 °F 32.0 °F 26% 30.10 in 10.0 mi West 8.1 mph - N/A   Clear
11:36 PM 68.0 °F 32.0 °F 26% 30.11 in 10.0 mi West 8.1 mph - N/A   Clear
11:56 PM 68.0 °F 32.0 °F 26% 30.10 in 10.0 mi West 5.8 mph - N/A   Clear